Temp
9 9 9 10 11 10 11 11 11 10 12 11 11 10 10 12 12 12 13 14 16 17 17 17 17 18 18 18 18 19 19 19 18 17 17 17 17 16 16 15 15 15 14 14
9 9 10 10 10 10 11 11 10 10 12 11 10 10 11 12 12 13 14 14 14 16 17 17 17 17 17 17 18 18 18 19 19 18 17 17 17 17 16 16 15 15 15 14
9 11 11 11 11 11 10 9 9 9 9 10 8 11 10 10 12 13 13 13 14 14 15 17 17 17 17 17 17 18 18 18 19 18 18 17 17 17 16 16 16 16 15 15
9 11 11 10 11 10 10 10 10 9 8 7 8 7 7 9 9 10 13 14 15 16 16 17 17 16 16 17 17 17 17 17 17 18 17 17 17 16 16 16 16 16 15 15
9 9 10 9 10 10 9 9 9 9 7 6 6 6 7 8 11 12 13 15 17 17 17 17 17 17 16 16 16 17 17 17 17 17 17 17 17 17 17 17 16 16 16 15
9 10 10 9 9 10 9 8 6 6 5 3 6 6 7 9 12 14 13 15 16 18 18 17 16 16 16 16 16 16 16 16 16 17 16 17 17 17 17 17 16 16 16 15
9 9 9 10 8 9 8 5 3 3 2 5 7 5 6 8 10 12 11 14 16 16 16 15 15 15 16 16 15 16 16 16 16 16 16 16 16 17 16 17 17 16 16 15
6 5 8 9 8 7 8 6 3 6 5 5 7 7 9 10 11 12 13 14 15 15 14 14 15 15 15 15 15 16 16 16 16 16 16 15 16 16 16 16 17 16 16 16
4 6 9 8 9 8 7 5 6 4 3 1 5 6 8 10 10 10 11 13 13 14 14 13 13 13 14 14 14 14 15 15 15 15 16 15 15 16 16 16 16 16 15 15
7 5 8 9 9 9 7 7 4 -0 2 4 5 5 9 11 12 10 9 11 12 12 12 12 12 13 13 14 14 14 14 14 15 14 15 15 15 15 16 16 16 15 15 14
9 6 6 9 7 6 7 7 6 4 3 4 5 7 7 10 11 9 8 10 11 11 11 11 11 12 13 13 13 14 14 14 14 14 15 14 14 14 14 15 15 14 14 11
9 5 2 7 7 7 7 6 5 1 3 2 3 6 9 9 10 10 11 10 10 10 9 9 10 11 12 12 13 13 13 13 13 13 14 14 13 13 13 14 14 13 11 10
8 4 1 5 6 6 6 6 6 5 4 1 4 6 9 8 11 12 11 10 9 8 8 8 9 10 11 12 12 12 12 12 12 12 12 12 12 12 12 12 11 10 9 8
9 5 4 4 4 3 3 6 5 6 5 4 4 7 9 10 11 11 9 8 8 7 7 8 9 10 9 11 11 11 11 11 11 11 12 11 11 10 9 9 9 9 8 7
6 3 3 4 5 4 4 6 5 3 6 4 7 7 8 9 10 9 8 7 6 6 6 7 8 8 9 10 10 10 9 9 9 7 9 10 9 8 7 8 7 6 5 5
5 2 2 3 5 5 4 5 5 6 7 7 7 6 9 9 10 8 5 4 4 5 6 6 7 7 8 8 8 7 7 6 5 4 6 7 6 7 5 6 5 4 3 2
5 2 1 2 6 5 5 6 6 7 6 8 7 9 10 10 9 4 3 3 3 2 3 6 6 7 7 7 6 6 5 3 3 3 5 5 4 5 4 3 2 2 1 1
4 4 2 1 4 5 10 10 10 8 8 8 8 9 9 9 7 3 3 2 2 3 5 5 6 6 5 4 4 4 3 3 3 3 2 2 2 3 1 1 1 1 1 1
7 6 4 3 4 7 10 10 10 8 9 9 7 8 8 8 7 4 3 2 2 1 3 4 4 4 4 4 3 3 3 3 3 1 1 1 1 1 1 1 0 0 1 0
6 6 4 4 6 8 10 11 10 8 7 9 9 7 8 7 7 5 2 1 1 1 1 2 2 2 3 2 2 3 2 2 1 0 1 1 1 1 1 0 0 -0 -0 -1
6 6 5 5 5 6 8 9 9 9 10 9 9 8 7 7 5 4 3 1 1 1 1 1 1 2 1 0 1 2 1 0 -1 -1 -0 -0 -0 0 0 0 0 0 -1 -1
6 6 6 6 6 5 10 9 10 9 10 9 8 8 7 6 4 4 3 2 1 -0 -0 -0 -0 -1 -1 -1 -0 -0 -0 -0 -0 -0 -0 -0 -0 -0 -1 -1 -0 -1 -1 -1
7 6 7 6 7 8 11 11 11 10 8 7 7 7 7 6 5 4 3 2 2 1 1 0 1 -0 -1 -1 -0 0 0 0 0 -0 -0 -0 -0 -1 -1 -1 -1 -1 -1 -1
8 9 8 8 9 9 11 11 10 10 9 7 6 6 6 6 5 4 4 3 2 2 2 2 2 1 1 1 1 1 0 0 0 -0 -0 1 -0 -1 -1 -1 -1 -1 -1 -1
6 8 8 7 7 10 10 10 10 10 8 8 6 6 6 6 5 5 5 4 3 2 2 2 3 2 1 1 1 1 1 1 1 1 0 -0 -1 -1 -1 -1 -1 -1 -2 -2
6 5 6 7 9 9 9 10 10 9 8 7 6 6 5 5 5 4 4 4 4 2 2 2 2 2 1 1 1 1 1 1 0 -0 -1 -1 -1 -1 -1 -1 -1 -1 -2 -2
Height
1472 1475 1478 1480 1481 1484 1487 1487 1489 1488 1484 1483 1480 1479 1474 1468 1467 1465 1461 1460 1458 1457 1458 1460 1463 1466 1467 1470 1473 1475 1479 1481 1483 1487 1489 1492 1493 1497 1499 1500 1503 1505 1507 1510
1474 1473 1475 1481 1484 1485 1486 1488 1490 1486 1483 1483 1480 1473 1466 1460 1454 1454 1453 1452 1451 1451 1452 1453 1457 1459 1461 1463 1466 1469 1471 1474 1475 1478 1482 1484 1487 1489 1493 1495 1497 1501 1503 1505
1470 1471 1472 1476 1479 1482 1486 1491 1492 1493 1487 1484 1482 1466 1460 1451 1446 1445 1442 1443 1445 1444 1443 1444 1447 1451 1454 1456 1459 1462 1464 1466 1469 1470 1474 1475 1480 1482 1485 1489 1491 1495 1497 1498
1472 1472 1472 1475 1478 1482 1487 1486 1488 1491 1493 1500 1489 1490 1468 1452 1447 1442 1438 1438 1437 1437 1436 1437 1439 1441 1445 1449 1453 1455 1457 1459 1461 1463 1463 1466 1471 1473 1476 1480 1485 1489 1492 1493
1474 1472 1474 1478 1479 1481 1488 1487 1490 1492 1498 1501 1495 1501 1469 1454 1446 1439 1435 1435 1434 1433 1433 1434 1435 1437 1439 1441 1444 1447 1450 1451 1454 1457 1456 1459 1463 1465 1469 1473 1477 1482 1486 1489
1471 1472 1474 1476 1478 1480 1485 1490 1496 1498 1506 1521 1492 1492 1475 1456 1445 1438 1436 1435 1433 1432 1431 1431 1433 1434 1435 1437 1439 1441 1442 1444 1447 1449 1449 1452 1454 1457 1462 1465 1470 1474 1478 1482
1473 1477 1476 1475 1482 1484 1487 1498 1522 1527 1532 1508 1487 1495 1475 1451 1442 1440 1439 1435 1433 1430 1430 1431 1432 1433 1434 1435 1436 1436 1437 1438 1440 1441 1442 1443 1445 1449 1454 1458 1461 1467 1471 1474
1485 1494 1477 1476 1479 1486 1487 1495 1515 1508 1513 1503 1483 1480 1458 1442 1440 1438 1437 1434 1433 1433 1432 1432 1431 1430 1431 1432 1432 1432 1432 1433 1435 1435 1435 1436 1436 1442 1446 1452 1456 1461 1464 1468
1487 1484 1474 1474 1477 1480 1490 1502 1497 1509 1513 1526 1490 1473 1452 1441 1440 1439 1438 1434 1433 1432 1430 1430 1431 1430 1428 1427 1427 1427 1427 1426 1426 1425 1426 1427 1431 1432 1439 1444 1448 1452 1458 1463
1469 1487 1475 1474 1476 1480 1486 1490 1509 1524 1528 1513 1490 1482 1459 1443 1441 1442 1440 1439 1438 1435 1434 1434 1431 1428 1426 1424 1423 1422 1420 1419 1419 1417 1418 1420 1423 1428 1431 1435 1439 1446 1452 1456
1464 1474 1482 1475 1479 1484 1487 1489 1493 1501 1508 1505 1500 1473 1448 1443 1442 1443 1440 1439 1436 1433 1431 1428 1426 1424 1422 1420 1418 1416 1415 1413 1412 1411 1411 1413 1415 1420 1424 1428 1435 1441 1446 1450
1464 1475 1497 1480 1479 1479 1482 1485 1492 1516 1509 1511 1507 1472 1440 1438 1439 1439 1437 1433 1429 1425 1421 1419 1416 1415 1415 1413 1412 1411 1410 1408 1406 1405 1406 1407 1409 1415 1420 1425 1429 1436 1441 1446
1465 1483 1502 1488 1486 1482 1483 1482 1485 1491 1495 1512 1500 1464 1437 1438 1436 1434 1431 1429 1425 1420 1415 1411 1408 1408 1411 1409 1408 1407 1405 1403 1401 1401 1403 1405 1408 1410 1419 1423 1425 1431 1437 1441
1463 1477 1483 1488 1486 1484 1490 1479 1481 1485 1492 1490 1478 1452 1441 1439 1433 1430 1428 1424 1420 1417 1412 1404 1404 1407 1411 1406 1405 1403 1401 1399 1397 1400 1402 1405 1407 1409 1415 1422 1424 1428 1434 1439
1467 1483 1482 1479 1475 1480 1479 1478 1480 1488 1474 1486 1456 1458 1442 1439 1433 1429 1425 1421 1418 1414 1412 1405 1403 1406 1408 1406 1403 1401 1400 1398 1397 1400 1400 1402 1405 1406 1413 1419 1422 1426 1432 1438
1469 1485 1484 1482 1470 1473 1477 1472 1473 1472 1469 1464 1459 1454 1440 1434 1429 1427 1425 1422 1417 1413 1410 1408 1407 1407 1408 1406 1404 1401 1399 1398 1399 1401 1401 1400 1403 1406 1414 1418 1422 1427 1433 1439
1471 1481 1488 1489 1470 1472 1474 1459 1460 1458 1456 1452 1452 1437 1431 1430 1428 1427 1424 1422 1417 1410 1406 1406 1407 1407 1407 1405 1404 1401 1399 1400 1400 1400 1399 1401 1405 1410 1414 1419 1425 1431 1437 1443
1473 1476 1484 1490 1474 1477 1445 1440 1441 1446 1442 1442 1439 1434 1431 1430 1427 1425 1424 1419 1413 1408 1402 1403 1406 1406 1406 1405 1405 1402 1401 1401 1402 1402 1402 1404 1409 1413 1419 1424 1431 1437 1441 1447
1466 1471 1478 1485 1481 1459 1442 1438 1440 1443 1437 1432 1435 1432 1430 1428 1424 1425 1423 1419 1414 1410 1404 1403 1404 1405 1405 1405 1405 1404 1404 1405 1405 1407 1411 1415 1419 1423 1427 1431 1436 1440 1442 1444
1468 1469 1476 1479 1470 1456 1438 1436 1437 1438 1443 1429 1430 1430 1429 1426 1424 1424 1421 1418 1415 1412 1409 1407 1407 1407 1407 1407 1408 1408 1409 1411 1412 1414 1416 1419 1422 1426 1430 1435 1437 1441 1444 1449
1466 1469 1470 1471 1471 1456 1438 1436 1436 1442 1439 1429 1429 1428 1426 1425 1426 1424 1421 1418 1415 1414 1412 1411 1411 1410 1410 1411 1411 1410 1411 1413 1415 1417 1419 1422 1424 1433 1436 1439 1443 1446 1451 1454
1459 1461 1463 1464 1465 1464 1432 1436 1437 1433 1428 1428 1426 1425 1424 1424 1423 1423 1421 1419 1417 1415 1414 1414 1412 1412 1413 1413 1415 1415 1416 1417 1419 1421 1425 1430 1435 1438 1440 1443 1446 1450 1454 1456
1454 1452 1452 1453 1447 1434 1432 1431 1431 1429 1427 1426 1424 1423 1422 1422 1422 1422 1422 1421 1420 1418 1417 1417 1416 1415 1416 1418 1420 1420 1423 1427 1430 1432 1434 1437 1440 1443 1447 1449 1451 1453 1455 1456
1444 1443 1445 1444 1431 1433 1431 1428 1429 1427 1425 1423 1422 1420 1420 1420 1421 1422 1422 1422 1421 1421 1421 1421 1421 1422 1422 1424 1426 1429 1430 1433 1435 1437 1440 1442 1445 1448 1450 1452 1454 1455 1455 1455
1446 1442 1439 1438 1433 1430 1428 1427 1426 1424 1422 1421 1419 1419 1419 1420 1420 1421 1422 1423 1423 1424 1424 1425 1426 1427 1428 1430 1432 1434 1436 1439 1441 1443 1445 1447 1449 1451 1452 1454 1455 1455 1455 1454
1441 1440 1439 1434 1430 1431 1427 1426 1424 1422 1420 1418 1418 1417 1418 1419 1419 1420 1422 1423 1425 1425 1427 1428 1429 1430 1432 1434 1436 1438 1441 1443 1444 1446 1448 1450 1452 1453 1454 1454 1454 1454 1454 1453
Wind_Speed
8 3 4 8 4 3 4 1 2 4 3 5 7 5 12 19 17 20 28 31 37 39 37 30 25 25 28 36 41 39 37 34 40 44 40 37 37 33 33 30 28 30 30 28
3 2 8 14 11 7 2 3 4 6 1 3 7 16 16 15 16 25 33 34 35 41 42 39 35 32 30 24 30 38 39 34 37 44 44 44 40 38 37 35 33 34 34 33
5 3 6 6 7 7 4 4 2 5 5 1 7 10 6 6 12 20 30 33 34 40 42 42 42 39 38 37 32 26 29 34 39 40 45 47 43 40 38 38 38 39 38 36
4 1 6 6 2 3 2 3 2 2 4 4 5 6 6 8 10 7 14 15 23 26 27 28 30 31 35 34 32 30 30 28 30 25 44 46 47 44 43 42 42 42 42 40
4 5 6 4 4 4 4 5 4 2 3 4 2 2 8 4 6 5 4 3 11 18 24 25 22 23 21 27 31 32 33 33 31 31 33 39 47 49 46 46 44 43 43 41
3 4 3 5 4 4 7 5 6 4 3 2 4 4 6 3 4 1 4 15 18 15 15 18 18 11 10 16 19 24 28 34 32 30 36 38 40 50 49 48 47 44 43 42
2 2 2 5 6 3 5 6 2 4 3 6 1 3 9 9 11 4 8 22 12 1 4 7 10 11 11 11 12 16 18 24 29 30 32 35 42 40 48 49 46 44 44 44
4 2 6 2 4 6 3 5 4 5 2 4 2 5 6 6 11 8 6 10 8 12 12 11 13 15 14 14 16 20 22 26 29 30 31 35 38 41 44 47 45 43 42 42
4 2 2 5 3 6 3 2 3 3 3 3 4 7 9 3 5 6 13 19 20 18 10 11 10 11 11 9 8 11 15 17 25 33 37 32 38 40 39 43 46 41 39 39
5 3 2 2 5 2 4 6 3 3 1 4 5 5 6 4 4 5 7 12 17 18 18 18 18 19 13 14 16 19 20 22 23 26 33 32 33 36 37 44 44 41 38 38
0 4 2 4 3 6 4 2 2 3 3 3 4 6 6 4 2 7 7 17 22 26 30 31 29 28 20 14 12 16 21 23 24 24 28 30 29 35 43 41 38 38 35 35
1 4 3 7 2 3 4 5 5 4 3 2 2 8 7 4 2 10 25 27 36 36 36 39 41 29 23 17 16 19 22 25 26 26 28 29 26 31 38 35 35 32 31 31
4 2 2 3 5 3 3 5 4 4 2 6 1 6 1 8 20 28 25 30 31 29 34 38 25 22 21 15 16 22 25 24 23 25 28 27 25 29 30 30 28 27 27 29
7 3 4 5 5 3 3 5 6 8 3 3 9 17 22 17 21 22 30 27 22 15 23 22 17 15 16 11 12 17 20 19 18 22 24 24 25 26 24 23 23 23 26 30
4 3 3 5 6 2 5 5 6 8 17 6 14 16 25 22 22 23 24 16 17 18 20 19 7 11 11 8 11 16 17 15 19 22 26 25 26 25 26 26 24 26 28 28
2 1 2 4 4 7 7 10 11 12 15 17 21 23 23 28 19 17 14 16 17 19 16 14 4 5 6 7 10 11 11 13 18 21 22 23 24 24 25 24 25 26 25 27
4 3 2 4 2 4 5 10 12 6 6 8 7 10 9 13 12 6 12 15 19 24 19 20 11 6 8 8 7 4 5 10 15 20 21 22 23 22 22 22 21 22 25 25
5 4 3 3 3 1 4 0 6 11 9 11 10 11 12 10 13 1 15 16 21 22 9 8 10 9 7 5 5 6 9 11 12 15 17 19 20 20 22 24 22 21 21 20
4 3 1 1 2 5 5 3 3 5 8 5 7 9 11 12 8 4 17 13 14 13 6 7 10 10 10 8 8 7 9 9 10 14 14 14 16 21 20 21 22 22 20 15
3 3 2 2 2 2 3 0 3 4 4 4 6 7 6 8 4 2 15 11 9 8 5 6 8 9 8 7 6 4 7 9 11 14 15 14 18 21 23 23 24 18 16 13
3 3 5 4 2 6 9 5 6 3 4 4 6 8 4 2 1 5 8 7 6 5 6 5 5 5 6 7 8 11 14 14 15 16 18 21 21 23 20 18 15 14 14 12
6 6 4 3 3 7 4 3 2 3 10 8 7 6 6 5 4 0 2 5 6 5 6 5 8 10 9 8 12 13 14 19 20 22 24 22 18 19 19 17 16 12 10 9
4 5 3 6 5 5 6 6 10 11 13 8 8 7 10 9 8 5 4 4 7 10 12 11 14 15 14 15 13 18 21 19 20 20 20 20 20 18 16 9 11 10 7 4
3 4 3 0 3 8 21 21 12 10 12 12 8 7 13 11 11 9 8 7 9 11 15 16 17 19 19 19 18 17 18 17 18 18 19 18 16 15 12 10 8 5 3 2
4 3 3 5 10 8 5 5 7 11 11 10 6 8 12 12 13 11 11 10 10 11 12 14 15 16 17 17 17 16 17 17 17 16 16 15 14 12 10 8 5 3 2 3
4 4 3 5 8 6 14 15 12 12 11 7 4 8 12 13 13 13 13 12 12 12 12 13 15 16 17 16 16 17 15 14 14 15 15 13 11 9 5 2 2 3 5 6
Wind_Direction
166 138 172 167 221 123 145 140 286 273 291 334 271 267 273 274 271 266 264 258 262 261 259 261 255 250 254 242 243 249 251 249 240 230 232 233 237 229 226 223 228 228 227 229
130 184 179 189 215 211 236 325 297 283 251 278 302 287 272 261 254 243 250 257 257 262 264 262 259 257 257 255 247 245 248 249 245 240 234 237 233 232 231 227 224 231 237 229
135 159 156 162 169 210 166 168 239 264 319 347 321 273 255 285 260 262 249 252 255 259 265 263 259 255 253 254 253 247 246 250 248 245 238 238 233 232 231 227 224 227 236 241
160 201 163 151 143 122 135 81 135 44 38 267 40 292 297 280 303 289 277 269 259 261 265 266 266 262 253 254 256 252 250 251 252 243 235 234 231 230 227 231 231 226 231 239
196 165 121 120 165 147 171 122 98 64 39 359 275 224 275 301 304 307 290 326 296 279 272 265 266 269 263 252 251 252 253 253 253 249 246 241 237 236 231 230 231 230 234 237
112 135 108 154 89 120 144 76 42 49 62 331 241 183 284 266 251 266 300 299 307 296 277 259 261 247 231 248 251 248 250 246 249 256 252 249 243 238 238 230 228 229 232 236
75 50 102 104 94 67 94 72 353 353 351 231 178 160 254 270 276 273 305 305 305 254 214 190 196 207 221 228 230 236 245 245 242 248 256 254 247 245 239 234 232 228 232 232
141 284 171 193 152 170 170 137 158 227 228 287 330 236 252 235 289 317 22 4 346 311 271 238 222 229 235 243 252 256 258 258 254 252 251 256 252 245 241 234 235 234 235 238
126 267 174 161 133 126 195 147 187 100 19 29 262 291 292 139 67 26 22 27 8 351 314 250 248 248 241 238 253 277 276 284 269 254 249 253 255 243 242 240 235 235 238 241
191 92 138 110 94 111 136 152 64 357 230 274 278 277 245 293 354 5 15 8 350 340 326 307 282 266 263 275 283 286 290 283 285 268 250 250 257 248 235 233 230 234 238 236
111 97 296 115 185 175 152 189 123 122 167 207 317 270 221 217 115 314 306 313 314 313 305 302 298 266 261 268 283 294 289 288 271 261 249 249 253 246 228 223 229 233 237 231
33 105 149 199 289 185 167 184 150 129 266 241 165 264 274 294 296 309 322 321 318 311 305 296 291 276 254 268 281 299 305 297 273 262 247 242 241 234 221 217 223 225 224 224
168 38 61 19 3 18 192 196 169 119 118 207 178 261 289 307 324 315 315 311 308 303 297 301 275 273 248 256 287 295 307 292 286 265 244 233 224 215 217 216 211 213 216 214
115 142 161 183 203 142 186 187 188 183 203 209 232 282 288 296 308 312 314 306 316 336 330 311 252 254 248 260 285 300 303 291 278 246 235 225 214 206 209 210 204 206 206 204
101 169 151 243 250 181 202 206 195 196 234 242 271 285 287 297 297 308 310 322 315 308 327 343 266 230 252 272 302 302 288 257 234 216 204 200 196 191 189 194 195 197 198 198
53 175 88 297 259 213 247 241 228 237 248 258 268 275 279 279 304 325 343 334 322 323 293 318 341 236 255 291 307 288 260 238 216 195 185 181 180 182 183 188 189 189 186 181
117 114 72 278 300 320 279 229 201 203 210 215 236 252 291 309 329 351 340 329 321 312 288 265 295 272 276 263 267 263 230 189 179 173 168 170 173 179 179 178 172 166 159 155
129 124 132 254 357 240 260 313 205 208 238 220 261 271 286 307 317 302 357 340 333 337 333 236 245 231 225 213 195 184 159 155 158 158 157 163 167 169 162 157 157 152 159 159
126 128 268 197 235 273 258 223 171 183 285 225 221 265 293 312 313 251 351 348 348 350 18 170 184 187 179 176 164 157 149 153 155 154 150 140 145 145 146 145 151 153 148 156
97 133 151 300 272 264 254 75 118 126 292 224 221 267 286 332 335 318 341 351 9 30 67 128 147 154 162 164 168 149 122 132 131 133 138 149 148 146 145 148 148 147 146 146
171 180 218 228 280 284 254 279 152 37 272 250 261 272 252 243 228 312 341 7 19 41 70 95 119 126 133 137 147 140 144 145 150 148 143 136 137 138 140 138 135 135 136 148
183 183 194 161 215 263 212 118 238 243 315 309 295 258 217 181 158 187 19 29 43 70 91 103 116 117 112 129 147 137 131 128 130 130 128 131 137 135 126 127 129 134 162 174
209 193 183 195 211 244 278 267 279 299 301 301 288 257 217 182 176 158 136 117 86 88 93 96 97 98 102 119 126 126 121 127 131 136 129 129 127 126 132 143 144 156 164 184
266 186 221 61 263 250 278 280 263 298 309 312 299 245 207 198 181 170 150 149 132 119 113 111 109 106 108 111 115 125 126 130 133 132 132 126 131 141 146 147 148 156 172 247
241 331 209 260 294 300 263 245 289 301 307 309 290 226 209 205 187 182 170 164 154 143 138 130 126 125 127 131 133 131 136 143 140 137 140 142 145 145 146 154 164 196 258 297
209 224 202 239 275 282 285 304 293 298 304 298 267 205 204 204 197 188 184 176 170 163 154 149 138 139 139 142 139 139 142 143 146 144 142 146 150 151 151 160 267 276 283 295